Flag for Italy Weather past 2 weeks in Cagliari, Italy

Now
75 °F

Passing clouds.


Feels Like: 78 °F
Forecast: 56 / 71 °F
Wind: 12 mph from Northwest

Location: Cagliari / Elmas


UV Index: 3 (Moderate)

Visibility: N/A


Pressure: 29.71 "Hg

Humidity: 47%

Dew point: 54 °F

Location of CagliariLocation

Historic Weather in Cagliari

°F

Cagliari temperature yesterday

Maximum temperature yesterday: 66 °F (at 11:20 AM)
Minimum temperature yesterday: 50 °F (at 6:50 AM)
Average temperature yesterday: 58 °F

Past Weeks' High & Low Weather Summary

 TemperatureHumidityPressure
High75 °F (Apr 19, 2:50 PM)100% (Apr 7, 3:20 AM)30.18 "Hg (Apr 7, 3:20 AM)
Low41 °F (Apr 17, 6:50 AM)28% (Apr 16, 12:50 PM)29.65 "Hg (Apr 19, 4:20 PM)
Average59 °F79%29.97 "Hg
* Reported Apr 6 4:20 PM — Apr 21 4:50 PM, Cagliari, Weather by CustomWeather, © 2014

Note: Actual official high and low records may vary slightly from our data, if they occured in-between our weather recording intervals... More about our weather records

Advertising

Historic Weather Conditions — Data for Previous 24 hours

 ConditionsComfort  
Time TempWeatherWind HumidityBarometerVisibility
4:50 PM
Apr 21
75 °FPassing clouds.12 mph47%29.71 "HgN/A
4:20 PM75 °FPassing clouds.6 mph50%29.71 "HgN/A
3:50 PM72 °FPassing clouds.7 mph61%29.71 "HgN/A
3:20 PM70 °FPassing clouds.10 mph69%29.71 "HgN/A
2:50 PM70 °FPassing clouds.12 mph73%29.71 "HgN/A
2:20 PM70 °FPassing clouds.9 mph69%29.74 "HgN/A
1:50 PM70 °FPassing clouds.10 mph64%29.71 "HgN/A
1:20 PM70 °FPassing clouds.12 mph64%29.74 "HgN/A
12:50 PM68 °FPassing clouds.12 mph69%29.71 "HgN/A
12:20 PM70 °FPassing clouds.7 mph64%29.71 "HgN/A
11:50 AM68 °FPassing clouds.7 mph69%29.71 "HgN/A
11:20 AM68 °FPassing clouds.5 mph69%29.74 "HgN/A
10:50 AM66 °FPassing clouds.5 mph68%29.74 "HgN/A
10:20 AM64 °FPassing clouds.5 mph73%29.74 "HgN/A
9:50 AM64 °FPassing clouds.6 mph78%29.74 "HgN/A
9:20 AM61 °FPassing clouds.6 mph88%29.71 "HgN/A
8:50 AM61 °FSunny.6 mph88%29.71 "Hg10 mi
8:20 AM59 °FPassing clouds.5 mph94%29.71 "HgN/A
7:50 AM54 °FPassing clouds.5 mph94%29.71 "HgN/A
7:20 AM52 °FPassing clouds.6 mph100%29.71 "HgN/A
6:50 AM52 °FClear.3 mph100%29.71 "Hg10 mi
6:20 AM50 °FPassing clouds.3 mph100%29.68 "HgN/A
5:50 AM54 °FClear.5 mph94%29.68 "Hg10 mi
5:20 AM54 °FClear.5 mph94%29.68 "Hg10 mi
4:50 AM54 °FClear.2 mph94%29.68 "Hg10 mi
4:20 AM54 °FClear.5 mph94%29.68 "Hg10 mi
3:50 AM54 °FClear.5 mph94%29.68 "Hg10 mi
3:20 AM55 °FClear.8 mph100%29.71 "Hg10 mi
2:50 AM55 °FClear.2 mph88%29.71 "Hg10 mi
2:20 AM57 °FClear.1 mph88%29.71 "Hg10 mi
1:50 AM55 °FPassing clouds.3 mph88%29.71 "HgN/A
1:20 AM55 °FPassing clouds.3 mph88%29.71 "HgN/A
12:50 AM55 °FClear.2 mph94%29.71 "Hg10 mi
12:20 AM55 °FPassing clouds.5 mph94%29.71 "HgN/A
11:50 PM
Apr 20
55 °FClear.No wind94%29.71 "Hg10 mi
10:50 PM59 °FClear.3 mph88%29.71 "Hg10 mi
10:20 PM59 °FClear.5 mph88%29.71 "Hg10 mi
9:50 PM59 °FClear.6 mph88%29.71 "Hg10 mi
9:20 PM59 °FClear.7 mph88%29.71 "Hg10 mi
8:50 PM59 °FSunny.7 mph88%29.68 "Hg10 mi
8:20 PM61 °FPassing clouds.6 mph83%29.68 "HgN/A
7:50 PM61 °FSunny.6 mph77%29.68 "Hg10 mi
7:20 PM63 °FSunny.7 mph73%29.68 "Hg10 mi
6:50 PM63 °FPassing clouds.9 mph73%29.68 "HgN/A
6:20 PM63 °FPassing clouds.13 mph73%29.68 "HgN/A
Weather by CustomWeather, © 2014

See weather overview